RH
82 82 83 85 86 84 83 82 82 82 85 90 94 98 99 96 85 67 54 51 51 50 48 45 41 38 35 32 29 26 24 22 21 20 19 18 17 17 17 18 18 19 19 19 19 20 20 21 21 20 18 17 16 15 14 13 12 11 11 10 10 9 9 8 8 9 9 8 7 6 6 6 6 5 5 5 4 4 4 4 4 4 4 4 4
86 86 86 86 85 83 81 80 80 84 89 94 99 102 97 82 65 54 51 51 51 49 46 42 38 35 31 28 25 22 20 19 18 17 17 16 16 16 16 17 17 17 17 17 18 18 19 20 20 19 18 16 15 14 12 11 11 10 10 10 9 9 8 8 7 7 8 7 6 6 5 5 5 5 4 4 4 4 4 4 4 4 4 4 4
89 87 85 83 82 81 80 80 84 89 95 100 102 95 80 63 55 53 53 51 49 47 43 39 35 31 27 24 22 20 18 17 16 15 15 15 15 16 16 17 17 16 16 16 17 17 18 18 19 19 17 15 13 12 11 10 10 9 9 9 8 8 7 7 6 6 6 6 6 5 5 5 5 4 4 4 4 4 4 4 4 4 4 4 4
88 85 83 82 81 81 81 83 89 96 102 101 92 75 61 56 55 55 52 49 46 43 39 35 30 26 24 21 20 18 17 16 15 15 15 15 15 16 15 16 16 16 16 16 16 17 17 17 17 16 15 14 12 11 10 9 9 9 8 8 8 7 6 6 6 6 6 6 6 6 5 5 5 4 5 4 4 4 4 4 4 4 4 4 4
86 85 85 84 83 83 85 91 97 100 96 84 70 60 57 57 55 52 49 45 41 38 34 29 26 24 22 20 19 18 17 16 15 15 15 15 15 15 15 15 15 15 15 16 16 16 16 16 15 14 13 12 11 10 10 9 8 8 7 7 7 6 6 6 6 6 6 6 6 6 5 5 5 5 5 5 5 4 4 4 4 4 4 4 4
88 89 87 85 85 87 92 97 96 87 74 64 59 59 58 54 51 47 43 39 35 31 28 25 24 22 21 20 19 18 17 16 16 16 16 15 15 15 15 15 15 15 15 16 16 15 14 13 13 12 11 11 10 9 9 8 7 7 6 6 6 6 6 7 6 6 6 6 6 6 5 5 5 5 5 5 5 4 4 4 4 4 4 4 4
91 89 87 87 89 91 91 86 76 66 60 59 58 57 53 48 44 40 37 33 29 27 25 23 22 21 21 20 20 19 18 17 17 17 16 16 15 15 15 15 15 15 15 15 14 14 13 13 12 12 11 10 9 8 7 7 6 6 7 7 7 7 7 6 6 6 6 6 6 6 5 5 5 5 5 5 5 4 4 4 4 4 4 4 4
90 89 88 88 85 81 73 65 60 58 58 58 55 50 46 42 38 35 32 29 26 24 23 22 22 22 22 21 21 20 20 19 19 18 17 16 15 15 15 14 14 13 13 13 14 14 14 13 12 11 10 8 7 7 6 6 6 7 7 7 7 6 6 6 6 6 6 6 6 5 5 5 5 5 4 4 4 4 4 4 4 4 4 4 4
89 86 82 77 70 64 60 59 59 58 56 52 48 44 40 37 34 31 28 25 24 23 22 22 23 23 23 23 22 21 21 20 19 17 15 15 14 14 14 13 13 13 13 14 14 14 14 13 11 9 8 7 6 7 7 7 7 7 7 7 7 6 6 6 6 6 6 5 5 5 5 5 4 4 4 4 4 4 3 3 3 3 3 4 3
81 74 68 63 60 58 59 59 57 54 50 46 41 38 35 32 29 26 24 23 23 22 23 23 23 24 23 23 22 20 19 18 17 16 14 14 14 14 13 13 13 13 14 15 15 14 12 10 9 8 7 7 7 7 8 7 7 7 7 7 6 6 6 6 6 6 5 5 5 5 5 5 4 4 4 4 4 4 4 3 4 3 3 4 3
66 61 59 59 59 59 58 55 52 47 43 39 36 33 29 26 24 22 22 23 23 23 23 23 23 23 22 21 20 19 18 18 16 15 14 14 14 13 13 13 14 14 15 15 13 12 10 9 8 8 8 8 8 7 8 8 7 7 7 6 6 6 6 6 6 6 5 5 5 5 5 5 5 4 4 4 4 4 4 4 4 4 4 4 4
59 59 60 60 60 57 53 48 44 40 36 33 30 27 24 22 22 22 22 22 23 23 22 22 21 21 20 19 19 19 18 17 16 15 14 14 13 13 13 14 14 15 14 12 11 10 9 9 9 9 9 8 8 8 8 7 7 6 6 7 7 7 7 6 6 5 5 5 5 5 5 5 5 5 4 4 4 4 4 4 4 4 4 4 4
61 61 61 60 56 50 45 41 37 33 30 27 24 22 21 21 21 21 21 22 21 21 20 20 20 19 20 20 19 19 18 17 15 14 14 14 13 12 12 13 13 13 12 12 12 11 10 9 9 9 9 9 8 8 7 7 7 7 7 7 7 6 6 6 6 6 5 5 5 5 5 5 5 5 5 4 5 4 4 4 4 4 4 4 4
61 61 59 54 48 42 38 34 31 28 25 23 21 20 20 20 21 20 20 20 20 20 20 20 20 20 19 19 18 18 17 16 15 14 14 13 13 11 11 11 11 11 13 13 13 12 11 10 9 9 9 8 8 7 7 7 7 7 7 7 7 7 6 6 6 6 6 6 6 6 6 6 6 5 5 5 5 5 5 4 4 5 5 4 4
61 58 52 44 39 35 32 29 26 24 22 20 20 20 20 20 20 19 19 19 19 19 20 20 20 19 18 18 17 17 17 16 15 14 13 12 11 10 10 11 12 13 13 13 12 12 13 12 11 9 8 8 7 7 7 8 8 8 8 8 8 8 8 8 7 7 7 6 7 7 7 7 7 6 6 5 5 5 5 5 5 5 5 5 5
56 49 42 36 33 30 27 24 22 21 20 20 20 20 20 20 19 19 19 19 19 20 20 19 19 18 17 17 17 17 17 16 13 12 11 10 10 10 11 12 14 14 13 12 12 13 13 12 10 9 9 9 8 7 7 8 8 10 10 9 9 9 9 8 7 7 7 7 8 8 8 8 7 7 7 6 6 5 5 5 5 5 6 5 5
46 39 33 30 28 26 23 21 21 20 20 20 20 20 20 19 19 19 19 19 20 20 19 18 18 17 17 17 17 17 16 14 11 10 10 10 11 12 13 14 14 14 13 13 13 13 12 10 10 10 10 10 9 8 7 8 10 11 11 11 11 10 9 8 7 7 8 8 9 9 9 9 8 7 7 6 6 6 5 5 5 5 6 6 6
36 31 29 27 24 22 20 20 20 20 20 20 20 19 19 19 19 19 20 20 20 19 18 17 17 17 18 18 17 16 14 12 11 10 10 12 12 13 14 14 15 14 14 14 13 12 11 10 10 11 11 10 9 9 9 10 12 13 12 12 13 13 11 9 8 8 8 8 9 9 9 9 8 8 7 6 6 6 6 6 6 6 6 6 6
29 27 25 23 21 19 19 19 20 20 20 19 19 19 19 19 20 20 20 19 18 18 17 17 17 18 18 17 15 14 12 12 11 11 12 13 13 13 14 15 15 15 14 13 12 11 11 11 11 11 10 10 10 10 10 11 13 14 14 14 14 13 11 10 11 11 10 9 10 9 9 8 8 8 8 8 7 7 7 6 6 6 6 6 7
26 24 22 20 19 18 19 19 19 19 19 19 19 20 20 20 20 20 19 18 18 17 17 17 18 17 16 15 14 13 12 12 12 13 13 13 13 14 15 16 15 14 13 13 12 12 12 12 11 10 10 11 12 12 12 12 14 16 16 17 16 14 11 12 13 12 11 11 11 10 9 9 8 8 9 9 8 8 8 7 7 7 7 7 7
23 21 19 18 18 18 19 19 19 19 19 19 20 20 20 20 20 19 18 18 17 17 17 16 17 16 14 14 13 13 14 14 14 13 13 13 14 15 16 16 14 13 14 14 14 14 13 12 11 11 11 12 13 14 14 14 15 17 19 19 18 17 15 16 15 13 11 11 10 10 11 11 10 10 9 9 9 8 8 8 8 8 8 8 8
19 18 17 17 18 18 19 19 19 19 19 20 20 20 20 20 19 18 17 17 16 16 15 15 15 14 14 13 14 15 16 15 14 13 13 14 15 15 15 14 13 14 15 16 16 15 13 12 12 12 12 13 14 15 16 16 17 19 20 20 20 19 19 19 19 16 13 11 10 10 10 11 11 12 12 11 11 9 8 8 8 8 8 8 8
17 17 17 18 18 18 18 19 19 19 20 20 20 20 20 19 18 17 16 16 15 14 14 14 14 14 14 14 15 17 17 15 14 13 14 14 15 14 13 13 14 15 17 18 17 14 13 13 13 13 13 14 14 15 16 17 18 19 20 20 21 21 20 21 21 20 17 14 12 10 9 9 10 11 12 12 12 12 11 10 9 9 9 9 10
16 17 17 18 18 18 18 19 19 20 20 20 20 20 19 18 17 16 15 14 14 13 14 14 13 13 15 16 17 18 17 15 14 14 14 14 14 13 12 13 14 16 17 18 16 14 14 14 14 15 15 15 16 17 18 18 17 17 18 20 21 21 21 22 22 21 20 18 15 12 11 10 9 9 10 11 11 13 14 12 11 10 10 10 10
17 17 18 18 18 18 18 19 20 20 20 20 19 19 18 17 15 14 13 13 13 13 13 13 13 15 17 18 18 17 16 16 15 14 14 14 13 12 13 14 15 16 17 16 15 15 15 16 16 16 16 17 18 19 19 19 18 17 17 18 19 20 22 23 22 22 22 20 17 15 12 10 10 9 9 10 11 12 13 12 11 11 11 10 10
18 17 17 18 17 18 19 19 20 20 19 19 18 17 16 15 14 13 13 13 13 13 13 13 15 17 19 19 18 17 16 16 15 14 13 13 12 13 14 16 16 16 16 14 13 14 16 17 18 18 19 21 21 21 20 19 18 17 17 17 19 20 21 22 23 23 23 21 19 17 15 12 11 10 10 10 10 11 12 12 12 11 10 10 10
17 17 17 17 17 18 19 19 19 19 18 17 16 15 14 13 13 13 13 13 13 13 13 15 17 18 19 19 18 18 17 16 15 14 13 12 13 14 15 16 16 15 14 13 12 14 16 18 19 20 22 23 22 22 21 20 18 17 16 16 18 19 21 22 22 23 23 21 19 17 16 14 13 13 13 12 11 10 10 11 11 11 10 9 9
17 16 17 17 18 18 18 18 18 17 17 16 14 13 13 13 14 14 13 12 12 14 15 17 18 18 19 19 19 19 18 17 15 13 13 13 14 16 16 16 15 15 13 12 12 14 17 18 20 23 25 25 24 24 22 21 20 20 18 17 16 17 18 19 20 21 21 20 18 17 16 15 15 15 16 16 14 11 10 9 10 10 9 9 9
16 16 17 17 17 17 17 17 17 16 15 14 14 13 14 14 14 13 12 12 13 15 17 18 18 18 19 19 19 19 19 17 14 13 13 14 15 17 17 16 15 14 12 11 12 15 17 18 21 24 25 24 24 23 22 22 22 22 22 20 19 18 17 17 17 17 17 16 17 16 15 14 15 15 16 17 16 14 12 11 10 9 8 8 8
16 16 16 16 16 16 16 16 15 15 14 14 14 14 14 14 13 12 12 14 15 16 17 17 18 19 20 20 20 19 19 17 15 13 13 14 15 16 17 16 15 13 11 10 12 15 18 21 25 29 29 28 26 24 22 21 21 21 21 22 21 20 19 18 16 15 14 13 15 15 15 14 15 15 15 16 15 15 13 12 11 10 9 8 7
16 16 16 15 15 15 15 14 14 14 14 14 15 15 14 13 12 12 13 15 17 17 17 17 18 19 20 21 20 19 18 17 16 15 15 15 16 16 17 17 15 13 12 11 12 14 17 23 28 31 31 31 31 29 27 25 23 22 22 21 21 20 19 17 16 14 12 12 13 14 15 15 15 14 14 14 14 13 12 11 10 10 9 8 7
16 15 15 14 14 14 14 14 14 15 15 15 14 14 13 13 13 14 15 16 17 17 16 17 18 19 19 20 20 20 19 18 16 15 15 14 15 15 16 16 15 13 12 11 12 14 18 23 28 30 28 28 27 25 24 23 21 21 21 21 21 20 18 16 14 12 12 12 12 12 14 14 14 14 14 13 13 12 11 10 9 9 8 8 7
14 14 14 13 13 13 14 15 15 15 15 14 14 13 13 14 15 16 17 16 16 17 17 17 18 19 19 20 20 20 20 19 18 17 16 15 14 14 14 14 12 11 11 10 11 14 18 22 27 29 29 28 27 24 21 20 18 17 17 16 16 16 15 14 13 12 11 11 11 12 12 12 12 12 11 11 11 10 10 9 9 8 8 8 7
13 13 13 13 13 14 14 15 15 15 14 13 13 13 14 16 17 18 18 17 17 17 17 17 18 18 18 19 19 20 19 19 19 18 17 17 16 16 15 14 12 10 10 10 11 14 18 22 24 25 26 26 26 25 23 22 21 20 18 16 13 12 10 10 11 11 10 9 9 10 11 10 10 10 9 9 9 9 9 9 8 8 8 7 7
13 13 13 13 14 14 15 15 15 14 13 13 13 14 16 17 18 18 18 18 18 18 17 17 17 17 16 17 18 18 19 19 18 17 17 17 17 17 17 16 14 13 12 11 13 17 22 25 26 26 25 24 23 22 22 23 23 22 21 19 16 14 11 10 9 9 9 8 8 8 8 9 9 9 9 9 9 9 9 8 8 8 7 7 7
13 13 13 14 14 14 15 14 14 13 13 13 14 16 17 18 18 18 18 18 18 18 18 17 16 16 16 16 16 16 16 17 16 16 16 16 16 16 16 15 15 14 13 13 16 20 23 25 26 25 24 23 21 21 21 21 20 20 19 19 18 16 13 11 9 8 8 7 7 7 6 7 8 8 8 9 9 9 9 8 8 8 7 7 7
13 13 13 14 14 14 14 13 12 12 13 15 16 18 18 18 18 18 18 18 19 18 18 17 16 16 16 16 16 15 14 14 14 14 14 14 14 14 14 14 14 13 13 15 19 22 23 23 22 21 20 20 20 20 19 18 18 17 16 16 15 13 12 10 9 8 8 7 7 7 6 6 7 7 7 8 8 8 8 8 8 8 7 7 7
13 13 13 13 13 13 12 12 13 13 15 16 17 18 18 18 18 18 18 19 18 18 17 16 16 16 16 15 15 14 13 13 13 13 13 13 13 12 12 12 12 13 15 19 22 24 24 22 21 20 20 19 19 18 17 17 16 15 14 13 11 10 9 9 8 8 8 7 7 7 6 6 6 6 7 7 7 8 8 8 8 7 7 7 7
13 13 13 13 12 12 12 13 14 15 17 18 18 18 17 17 18 18 18 18 18 17 17 16 16 15 15 14 14 13 13 13 13 13 12 12 11 11 11 11 11 13 17 21 22 22 21 20 19 19 19 19 18 17 17 16 14 12 11 10 9 9 8 8 8 7 7 7 7 6 6 6 6 6 6 6 6 6 7 7 7 7 7 6 6
13 13 12 12 12 12 12 14 15 16 17 18 17 17 17 17 18 18 18 17 17 16 16 16 15 14 13 13 12 13 13 13 13 12 12 11 11 10 10 11 13 16 19 19 19 17 17 17 17 17 16 16 16 15 14 12 11 10 9 9 9 9 8 7 7 7 6 6 6 6 6 6 6 6 6 6 6 6 6 6 7 7 7 7 7
12 12 11 11 11 12 13 15 16 17 17 17 17 17 18 18 18 18 17 16 16 16 15 14 13 12 12 12 12 13 13 13 13 12 11 11 10 10 11 13 15 18 18 17 16 16 16 17 16 16 16 15 14 13 11 9 9 8 8 8 8 8 7 7 6 6 6 6 6 6 6 6 6 6 6 6 6 6 6 6 7 7 7 7 7
12 12 11 11 12 13 14 16 17 16 16 16 17 17 18 18 17 17 17 16 16 15 14 13 12 11 11 12 12 13 13 12 12 11 11 10 10 11 13 16 18 18 17 16 16 17 17 16 16 16 16 15 13 11 10 9 9 8 8 7 7 7 7 7 6 6 6 6 6 6 6 6 6 6 6 7 7 7 7 6 7 7 7 7 7
11 11 11 12 12 14 15 16 16 16 16 16 17 17 17 17 17 16 16 16 15 14 13 12 11 12 12 12 12 12 11 11 11 11 10 10 11 14 17 19 19 18 17 17 17 17 17 16 17 16 15 12 11 10 9 9 8 8 7 7 7 7 6 6 6 6 6 6 6 6 6 6 6 6 6 7 7 7 6 6 6 7 7 7 7
11 11 12 12 13 15 15 16 16 16 16 16 16 16 16 16 16 16 16 15 13 12 12 11 12 12 12 12 11 11 10 10 10 10 10 12 14 17 19 19 18 17 17 18 17 17 17 17 16 14 12 10 9 9 9 8 8 7 7 7 7 6 6 6 6 6 6 6 6 6 6 6 6 6 6 6 7 6 6 7 6 6 7 7 6
11 11 12 14 14 15 15 15 15 16 16 16 16 16 15 15 15 15 14 13 12 11 11 12 12 12 12 11 10 10 10 10 10 10 12 15 18 19 19 18 17 17 17 17 16 16 17 17 14 11 10 9 9 8 8 8 7 7 7 7 7 6 6 6 6 5 6 6 6 6 6 6 6 6 6 6 6 6 6 6 6 6 6 6 6
11 12 14 15 15 14 15 15 15 16 16 16 15 15 15 14 14 13 12 11 11 11 12 12 12 11 11 10 10 9 9 10 11 13 16 18 19 18 17 16 17 17 16 16 16 17 16 14 12 10 9 9 8 8 8 7 7 7 7 6 6 6 6 6 5 5 6 6 5 6 6 5 6 6 6 6 6 6 6 6 6 6 6 6 6
12 13 14 14 14 14 15 15 15 15 15 15 14 14 13 12 12 11 11 11 11 12 12 12 11 11 10 10 10 10 10 11 14 16 18 19 18 17 16 16 16 16 15 16 17 16 14 12 10 9 9 8 8 7 7 7 7 7 6 6 6 6 6 6 5 5 5 6 5 6 6 5 5 6 6 6 6 6 6 6 6 6 6 6 7
13 14 14 14 14 15 15 15 15 14 14 13 13 12 11 11 10 10 11 11 11 12 11 11 10 10 9 9 10 10 12 14 17 18 19 18 17 16 16 16 15 15 16 17 17 14 11 10 9 9 8 8 7 7 7 7 7 7 6 6 6 6 6 6 5 5 5 5 5 5 6 5 5 6 6 6 6 6 6 6 6 6 7 7 7
14 14 14 14 14 14 14 14 13 13 12 12 11 10 10 10 10 11 11 11 11 11 10 10 9 9 9 10 10 12 15 17 19 18 17 17 16 16 16 15 15 16 17 17 15 11 9 9 9 9 8 7 7 7 7 7 7 7 6 6 6 6 6 5 5 5 5 5 5 5 5 5 6 6 6 6 6 6 6 6 6 6 6 7 6
14 14 14 14 14 13 13 12 12 11 11 10 10 10 10 10 11 11 11 11 10 10 10 9 9 9 10 11 13 15 17 18 18 17 17 17 16 16 15 15 16 18 18 15 12 10 9 9 8 8 7 7 7 7 7 7 7 7 7 6 6 6 6 5 5 5 5 5 5 5 5 5 5 6 5 6 6 6 6 6 6 6 6 6 7
14 13 13 13 12 12 11 11 10 10 10 10 10 11 11 11 11 11 10 10 10 9 9 9 9 10 11 13 16 17 18 18 17 17 17 17 16 15 16 17 18 18 16 12 10 9 9 9 8 8 7 7 7 7 7 7 7 7 7 7 6 6 6 5 5 5 5 5 5 5 5 5 5 5 6 6 6 6 6 6 6 7 7 6 7
Wind_Speed
97 98 98 100 101 103 104 105 106 108 109 110 111 113 115 115 114 112 110 109 109 109 109 109 107 106 105 104 103 103 101 101 100 99 99 99 99 99 98 98 98 99 99 100 101 101 102 103 104 105 106 106 106 107 107 108 108 107 107 107 108 108 108 107 106 106 108 111 110 110 113 116 117 118 120 121 122 122 123 124 125 127 128 130 132
99 100 101 102 104 105 106 107 108 109 110 111 113 115 115 114 112 111 110 109 109 109 109 109 108 106 106 105 104 103 102 101 100 99 99 99 98 98 98 98 98 98 98 99 99 100 100 101 103 104 105 105 105 106 106 106 106 105 106 106 106 106 106 105 104 103 103 105 106 107 110 113 113 114 116 117 118 118 119 120 121 122 124 126 128
101 103 104 105 106 107 108 109 109 110 112 114 115 115 114 112 111 110 110 109 109 109 109 108 107 106 105 104 104 103 102 101 100 99 98 97 97 97 96 96 97 97 97 97 98 98 99 99 101 102 103 104 105 105 105 104 104 103 103 103 103 103 103 102 101 100 99 101 103 105 108 110 110 110 112 113 114 115 115 116 117 119 120 122 124
104 106 107 107 108 109 109 110 111 113 114 115 114 113 112 111 110 110 110 109 109 108 108 108 107 106 105 104 103 102 101 100 99 97 97 96 96 96 95 95 95 95 96 96 96 97 97 98 99 100 101 102 103 103 103 102 101 100 100 100 99 99 99 98 97 97 98 99 101 104 106 108 108 107 108 109 110 111 112 113 114 115 116 118 119
106 107 108 109 110 110 111 112 113 114 115 114 112 111 110 110 110 109 109 109 108 107 107 106 105 105 104 103 102 101 100 99 97 96 96 95 95 94 94 94 94 94 94 94 95 96 97 97 98 99 99 99 100 100 100 99 98 97 96 95 95 95 95 95 96 96 97 97 100 102 104 105 105 105 105 106 108 109 110 111 112 112 113 114 115
108 108 109 110 111 112 112 113 114 113 112 111 110 110 110 109 109 108 108 107 106 106 105 105 104 103 102 102 101 99 98 97 96 95 95 95 94 94 93 93 93 93 93 93 93 94 95 96 96 96 96 96 96 96 96 95 94 93 92 92 92 92 93 94 94 95 95 96 97 99 101 103 103 102 103 104 105 106 107 108 109 110 110 111 112
108 109 110 111 112 112 113 112 112 110 109 109 109 109 109 108 108 107 106 106 105 104 103 103 102 101 100 99 98 98 97 96 95 95 95 95 94 93 92 92 92 91 91 91 91 92 92 93 93 94 94 93 93 92 91 90 89 89 89 90 90 91 91 92 92 93 93 93 94 96 98 100 100 100 101 102 102 103 105 105 106 106 107 108 109
110 111 112 112 112 111 110 109 109 108 108 108 108 108 107 107 106 105 105 104 103 102 101 100 99 98 98 97 97 96 95 95 95 95 95 94 93 92 91 90 89 89 88 88 88 88 89 90 91 91 91 90 89 88 87 87 86 86 87 88 89 89 89 90 90 90 91 91 92 93 95 96 97 98 98 99 100 100 101 102 102 103 103 104 105
111 111 111 110 109 108 108 107 107 107 107 107 107 106 106 105 104 103 103 102 101 100 98 97 97 96 96 96 96 95 95 94 94 95 94 92 91 90 88 87 86 85 85 84 84 85 87 88 88 88 88 87 86 85 85 85 84 84 85 86 87 87 87 87 88 89 89 89 90 90 91 93 95 95 95 96 96 97 97 98 98 99 99 100 102
110 109 108 108 107 107 106 107 107 107 107 106 105 105 104 103 102 101 100 99 98 97 96 95 95 95 95 95 94 94 93 93 93 93 91 89 88 86 85 83 82 81 81 82 82 84 85 85 86 86 86 85 84 83 83 83 83 84 84 84 84 84 85 86 86 86 87 87 87 87 88 90 92 92 92 93 93 93 94 94 95 96 96 98 99
108 107 106 106 106 106 106 107 107 106 106 105 104 103 102 100 99 98 97 96 95 94 94 94 94 94 94 93 92 92 91 90 90 90 88 86 85 83 80 79 79 79 79 80 81 82 83 84 84 84 84 84 83 81 81 82 82 82 82 82 81 82 83 83 84 84 84 84 84 85 86 87 89 90 90 90 90 90 91 91 92 93 94 95 97
106 105 105 106 106 107 107 106 106 105 104 103 101 100 99 98 96 95 94 93 93 93 93 92 92 92 91 90 90 89 88 88 87 86 85 83 82 79 76 75 75 76 78 80 81 82 82 82 82 82 83 83 81 80 80 81 81 80 79 79 79 80 80 81 81 81 81 81 81 82 83 85 87 88 88 88 88 88 89 89 90 91 92 93 95
105 105 106 107 107 107 106 105 104 103 102 100 99 98 96 94 93 92 91 91 91 91 90 90 89 89 88 87 87 86 85 85 84 83 81 80 79 76 73 71 72 74 77 80 81 82 82 82 81 80 81 81 80 79 78 79 78 77 75 76 77 78 78 78 79 79 79 79 78 79 81 83 84 86 86 86 85 86 87 87 88 88 90 91 92
105 106 107 108 107 106 105 104 102 101 99 98 96 95 93 92 91 90 90 89 89 88 87 87 86 86 85 84 83 83 83 82 81 79 79 77 76 73 71 71 72 73 76 78 80 81 82 82 81 80 80 80 79 77 75 75 75 73 73 74 75 76 75 75 76 76 76 76 75 77 79 80 81 83 84 83 83 84 85 85 85 85 87 89 90
106 107 108 107 106 105 103 102 100 99 97 95 93 92 91 90 89 88 87 87 86 85 84 84 83 83 82 81 80 80 80 79 78 77 76 75 73 72 72 72 73 74 76 78 78 79 80 81 81 81 80 79 78 75 72 70 70 70 71 72 73 73 73 73 74 73 72 72 72 74 76 76 78 80 81 82 82 83 83 82 82 82 84 86 87
107 107 107 105 104 103 102 100 98 96 94 93 91 90 89 88 87 86 85 84 83 82 82 81 80 80 80 79 78 77 77 77 76 74 74 73 73 72 72 73 74 75 76 77 77 78 79 79 79 78 78 78 76 73 69 67 67 68 68 70 70 70 71 72 71 70 68 67 68 70 72 75 76 78 80 80 80 81 81 79 79 80 81 82 84
107 106 105 103 102 101 99 97 95 94 92 91 89 88 87 86 85 84 83 82 81 80 79 79 78 78 77 76 75 75 75 75 75 73 73 73 73 73 73 74 75 76 76 76 77 77 78 78 76 74 74 75 74 71 67 65 65 66 66 67 68 68 70 70 68 65 64 64 65 67 70 73 75 77 78 78 78 78 77 77 78 78 77 78 82
105 104 103 102 101 99 96 94 93 91 90 88 87 86 85 84 82 81 80 79 78 78 77 77 76 75 74 74 74 74 74 75 75 74 73 74 73 73 72 73 75 76 76 76 77 77 77 76 74 72 71 71 70 69 66 64 63 64 65 65 65 66 68 67 65 63 63 63 64 66 69 71 73 75 76 76 76 75 74 75 77 77 76 77 80
103 102 101 100 98 95 93 91 90 89 87 86 85 84 83 81 80 79 78 77 77 76 75 74 73 73 73 73 73 73 74 75 75 74 73 74 73 72 72 73 75 75 75 75 76 76 75 73 72 70 68 68 68 67 66 63 62 63 64 64 64 65 65 63 61 62 64 63 65 67 68 70 71 72 73 74 74 74 74 74 75 76 76 77 78
101 100 99 97 95 92 90 89 87 86 85 84 83 82 81 79 78 77 76 76 75 74 73 72 71 71 72 72 73 74 74 75 75 74 73 73 73 71 71 72 74 74 74 74 75 74 73 71 70 69 67 66 66 66 66 64 62 61 62 63 64 65 63 61 60 62 63 64 65 66 67 69 70 70 71 72 73 73 73 73 74 75 76 77 77
99 98 96 93 91 89 88 87 85 84 83 82 81 80 78 77 76 75 75 74 73 72 71 70 70 71 72 73 73 74 75 75 75 73 72 72 72 71 71 71 72 72 72 73 73 72 71 70 69 68 67 65 65 65 64 64 62 61 62 62 63 63 62 61 62 63 63 64 65 64 65 67 69 70 71 72 73 73 73 72 72 73 75 76 77
96 94 92 90 88 87 85 84 83 82 81 80 79 78 76 75 74 74 73 72 71 70 69 69 70 71 73 73 74 74 74 75 74 73 71 71 71 71 71 70 70 70 70 71 71 71 69 69 68 68 67 66 65 64 63 63 62 62 62 63 63 62 62 62 63 65 65 65 64 64 65 66 67 69 70 72 73 74 73 72 72 73 74 75 75
92 90 88 87 85 84 83 82 81 80 79 78 77 76 75 74 73 72 71 70 69 69 69 69 70 71 72 73 73 74 74 74 73 72 71 70 70 71 70 69 69 68 67 68 70 69 68 68 68 68 68 66 65 63 62 62 62 62 63 63 63 63 62 61 63 65 65 65 65 66 66 66 66 67 69 70 72 73 73 74 73 73 74 74 75
88 87 85 84 83 82 81 81 79 78 77 76 75 74 73 72 71 70 70 69 68 68 69 70 71 71 72 72 73 73 73 73 72 71 70 69 69 70 69 68 68 66 65 66 68 67 67 68 68 68 67 66 65 64 63 63 63 62 62 62 62 62 61 61 63 64 64 65 66 67 67 67 67 67 68 69 69 70 73 75 74 74 74 74 75
85 84 83 82 81 80 80 78 77 76 75 74 73 72 71 71 70 69 68 68 68 69 69 70 70 70 71 72 72 73 73 73 72 71 69 69 69 68 67 67 67 65 64 65 65 65 66 67 67 67 67 66 65 64 64 64 64 63 62 62 62 61 61 62 62 63 64 65 66 67 67 68 67 68 68 68 68 69 72 74 74 74 74 75 75
83 82 81 80 80 78 77 76 75 74 73 72 71 71 70 70 69 69 69 68 69 69 70 70 69 69 69 70 72 72 72 72 72 71 69 68 68 67 66 66 66 65 64 64 63 63 64 66 66 66 65 65 65 65 65 65 64 64 63 62 61 61 61 62 62 63 64 65 66 66 67 67 68 68 69 69 69 69 70 71 73 73 74 74 73
81 81 80 79 78 76 75 74 73 71 71 70 70 70 70 69 69 69 70 69 69 69 69 69 68 68 68 69 71 72 72 72 71 70 69 67 66 66 66 66 65 65 64 63 62 63 64 65 65 64 64 64 65 65 65 65 65 64 63 62 61 61 61 62 62 62 64 65 66 66 66 67 67 68 69 70 71 70 69 69 70 72 72 72 72
80 79 78 77 76 75 73 72 70 69 69 69 70 70 69 70 70 70 70 70 69 68 68 68 67 67 67 69 70 71 72 72 71 70 69 66 65 65 65 65 65 64 64 62 62 62 64 64 63 63 63 63 64 64 65 65 64 65 65 64 63 62 62 62 62 62 63 64 65 66 66 66 67 67 68 70 72 71 70 68 68 70 71 71 71
79 78 76 75 74 72 71 69 69 68 68 69 70 70 70 70 71 71 71 70 68 67 67 67 67 66 67 68 69 70 72 73 72 70 68 65 64 64 65 65 65 64 63 62 61 62 64 64 63 63 62 62 62 63 63 64 63 64 65 66 66 66 65 64 63 63 63 62 63 65 65 65 66 66 67 69 70 71 71 70 69 69 70 70 69
77 76 74 73 71 70 68 68 67 68 68 69 70 70 71 72 72 71 70 69 68 67 66 66 66 66 66 68 69 69 71 72 73 70 67 65 64 64 64 65 65 65 63 61 60 62 63 63 63 63 63 63 63 64 64 64 64 64 65 65 67 67 67 67 66 65 64 63 62 63 64 65 65 65 66 67 69 70 71 71 70 70 70 70 69
75 74 72 71 69 68 67 67 67 68 69 70 70 71 72 72 72 71 70 68 67 67 66 65 65 65 65 67 68 69 70 71 72 70 68 65 63 63 63 64 65 65 64 62 61 62 62 62 62 63 63 62 63 64 64 64 65 65 65 66 67 68 68 68 68 67 66 64 63 63 63 64 65 65 66 66 67 69 70 70 70 71 71 71 70
73 71 70 69 68 67 67 67 68 68 69 70 71 71 72 72 72 72 70 68 67 66 65 65 65 65 66 66 67 69 70 71 71 70 68 66 64 62 62 63 63 63 62 61 60 61 62 61 62 63 63 63 63 63 63 63 64 64 65 65 66 68 68 68 69 68 66 65 63 62 62 62 63 64 65 65 66 68 69 69 70 70 71 71 70
71 69 68 67 67 66 67 67 68 69 70 71 71 71 71 71 71 71 70 69 68 67 66 64 64 65 66 67 67 68 69 69 69 69 69 68 66 65 64 64 63 62 61 60 59 60 60 60 60 62 63 64 64 65 65 65 65 65 65 64 64 65 65 66 66 67 66 65 62 61 61 61 61 62 64 65 65 67 68 69 69 70 70 71 71
69 68 67 67 67 67 67 68 69 70 70 71 71 71 70 70 70 70 70 69 69 68 67 65 64 64 64 65 66 67 68 68 67 67 67 67 67 67 66 66 66 65 63 61 60 60 60 61 61 61 62 63 64 64 65 66 67 67 68 67 67 66 65 64 63 63 63 63 61 59 59 60 60 61 63 64 64 65 66 68 68 69 69 70 70
67 67 66 66 67 67 68 68 69 70 70 71 70 70 70 69 69 69 69 69 69 69 68 67 66 65 64 64 64 65 65 66 66 66 66 65 65 65 65 66 66 66 65 64 62 61 61 61 61 62 62 63 63 64 64 64 65 66 67 68 69 68 67 65 63 62 61 60 59 58 56 56 58 59 61 62 63 64 65 66 67 67 67 68 68
67 67 67 67 67 67 68 68 69 69 70 70 69 69 69 69 68 68 68 68 68 69 69 68 68 67 66 65 64 64 64 64 64 64 64 64 63 63 63 63 63 63 63 63 63 62 61 61 61 61 62 63 63 64 64 64 64 64 65 66 66 67 67 66 65 63 61 60 59 57 56 55 55 56 57 59 61 62 63 64 64 65 65 65 65
67 67 67 67 67 67 68 68 69 69 69 69 69 68 68 68 68 68 68 68 68 68 69 69 68 67 66 66 65 65 64 64 64 63 63 63 62 61 61 61 61 61 61 61 61 61 61 61 61 62 62 63 63 63 63 64 64 64 64 63 63 63 63 63 63 63 62 61 59 58 56 55 54 54 55 56 58 59 61 62 63 63 63 62 62
67 67 67 67 67 68 68 68 68 68 68 68 68 68 67 67 67 67 67 68 68 68 68 68 68 67 66 66 66 66 66 65 64 63 63 62 61 60 60 59 59 58 58 59 59 59 60 61 62 63 63 63 63 63 64 64 64 63 62 62 62 62 61 60 60 60 61 60 59 58 57 55 55 54 54 54 55 57 58 59 60 61 61 59 58
67 67 67 67 67 67 67 67 67 67 67 67 67 67 67 67 67 67 67 67 68 68 68 67 67 66 66 66 66 66 66 66 65 64 63 62 61 60 59 58 57 57 56 56 57 57 58 59 60 61 62 63 63 63 63 63 62 61 60 60 60 60 60 59 58 58 58 59 58 57 56 54 54 53 53 53 53 54 55 55 57 58 58 56 55
67 68 68 67 67 66 66 67 67 67 67 67 67 67 67 67 67 67 67 67 67 67 67 67 66 66 65 65 65 65 65 65 64 63 63 62 61 60 59 57 57 56 56 56 56 56 57 58 59 60 61 61 61 61 60 59 59 59 58 58 58 58 59 58 58 56 56 56 56 55 54 53 52 51 51 51 51 52 52 52 53 54 54 53 53
68 68 68 67 67 66 66 66 66 66 66 66 66 66 67 67 67 68 68 67 67 67 66 66 65 65 65 64 64 64 63 63 63 62 62 61 60 59 58 57 56 56 56 56 57 57 57 57 58 59 60 60 60 60 59 58 57 56 56 56 56 57 57 57 56 55 54 53 52 52 51 50 50 49 49 48 48 49 49 49 50 51 51 50 51
69 68 68 67 66 66 66 66 66 66 66 66 66 66 66 67 67 67 67 67 66 66 66 65 65 65 64 64 63 62 62 61 61 60 60 59 59 58 57 57 57 57 57 57 57 57 57 58 58 58 58 58 58 59 58 58 57 56 56 56 55 55 54 53 53 53 52 50 50 49 48 47 47 46 46 46 46 46 47 46 46 47 48 48 49
68 68 67 67 66 66 65 65 65 65 65 65 65 65 66 66 67 66 66 66 66 65 65 65 64 64 64 63 62 61 60 59 59 58 58 57 57 56 56 56 56 57 57 57 57 57 57 58 57 57 57 57 57 56 57 56 56 55 55 55 54 53 52 50 49 50 49 48 47 46 45 44 43 43 43 43 43 44 44 44 44 44 45 47 48
68 67 67 67 66 65 65 65 65 66 66 65 65 65 65 65 65 65 65 65 65 64 64 64 64 63 62 61 60 59 59 58 57 56 56 55 54 54 54 55 56 56 57 56 56 56 56 56 56 56 55 55 55 54 54 54 54 54 53 53 52 51 49 48 46 46 46 45 44 44 43 41 40 40 40 41 41 41 41 41 42 43 44 45 46
68 67 67 66 66 65 65 65 65 66 66 66 65 65 65 64 64 63 63 63 63 63 63 62 62 62 61 60 59 58 57 57 56 55 54 53 53 53 54 54 55 55 55 55 55 55 55 55 55 55 54 54 53 53 52 52 52 51 51 51 50 49 47 46 44 43 42 42 41 41 41 40 38 38 38 38 38 39 39 39 40 41 42 42 43
67 67 66 66 65 65 65 65 65 65 65 65 65 64 63 63 62 62 62 62 61 61 61 61 61 60 59 59 58 57 56 55 54 53 53 53 53 53 54 54 54 54 54 54 54 54 54 54 54 53 53 52 51 51 50 50 49 49 48 48 47 46 45 44 42 41 40 39 39 38 38 38 37 37 36 36 36 36 37 37 38 38 39 39 39
66 66 65 65 65 65 65 65 65 65 65 64 64 63 62 62 61 61 61 60 60 60 60 59 59 58 58 57 56 55 54 53 53 52 52 53 53 53 54 53 53 53 53 53 53 53 53 53 52 52 51 51 50 49 48 47 46 46 46 45 44 44 43 41 40 38 37 36 36 36 36 36 35 35 34 34 34 34 34 35 35 35 35 35 35
65 64 64 64 65 65 65 65 65 64 64 63 63 62 61 61 61 60 60 59 59 59 58 58 57 57 56 55 54 53 53 52 52 52 52 53 53 53 53 52 52 53 52 52 52 52 51 51 51 50 50 49 48 47 46 45 44 44 43 43 42 41 40 39 38 36 34 34 34 34 34 34 33 33 32 32 31 31 31 32 32 32 33 33 34
64 64 64 64 65 65 65 64 64 63 63 62 62 61 61 61 60 60 59 59 58 57 57 56 56 55 54 53 52 52 51 51 51 51 52 52 52 52 52 52 52 52 51 51 51 50 50 49 49 49 49 48 46 45 44 43 42 42 41 40 39 39 38 37 35 34 32 31 31 31 31 31 31 31 30 30 29 29 29 29 29 30 31 31 32
64 64 64 65 65 65 64 64 63 62 62 61 61 61 61 60 60 59 59 58 57 56 56 55 54 53 52 52 51 50 50 50 51 51 52 52 51 51 51 51 51 51 50 50 49 48 48 47 47 47 46 45 44 43 42 41 40 39 39 38 37 36 35 34 33 32 30 30 29 29 29 29 29 28 28 27 27 27 27 27 27 28 28 29 29
65 65 65 65 64 64 63 62 62 61 61 60 60 60 60 59 59 58 57 57 56 55 54 54 53 52 51 50 50 50 50 50 51 51 51 51 50 51 51 51 50 50 49 48 47 46 46 46 46 45 44 43 42 41 40 39 38 37 37 36 35 34 32 31 31 29 28 27 27 26 26 26 26 26 25 25 25 25 25 25 25 25 26 26 27
Wind_Direction
295 295 295 296 296 296 296 296 296 297 297 298 298 299 299 299 298 298 297 297 296 296 295 295 294 294 293 292 291 290 289 288 287 286 285 284 283 282 281 279 278 277 277 276 276 276 276 275 275 275 275 274 274 273 273 272 272 271 271 270 270 269 268 267 266 265 264 264 264 263 262 261 260 259 259 258 257 256 256 255 254 253 253 252 251
295 295 295 296 296 296 296 297 297 297 298 299 299 299 299 298 298 297 297 296 296 296 295 295 294 294 293 292 291 290 289 288 288 286 285 284 283 282 280 279 278 278 277 277 276 276 276 276 276 276 275 275 274 274 273 272 272 271 271 270 270 269 269 268 267 266 265 265 264 262 261 261 260 259 259 258 258 257 256 255 255 254 253 252 251
295 295 296 296 297 297 297 297 298 298 299 299 299 299 298 298 297 297 297 296 296 296 295 295 294 293 293 292 291 290 290 289 288 287 286 284 283 282 280 280 279 279 278 278 277 277 277 276 276 276 275 275 275 274 273 273 272 271 271 271 270 270 269 268 268 267 266 265 264 263 262 261 260 260 259 259 258 257 257 256 255 254 253 252 252
296 296 296 297 297 298 298 298 299 299 299 299 299 299 298 298 297 297 297 296 296 296 295 294 294 293 292 292 291 291 290 289 288 287 286 284 283 282 281 281 280 280 280 279 279 278 277 277 276 276 275 275 274 274 273 273 272 272 271 271 270 270 269 269 268 267 266 265 264 263 262 262 261 260 260 259 259 258 257 256 255 254 253 252 251
296 297 297 298 298 299 299 299 299 300 299 299 299 299 298 298 298 297 297 296 296 295 294 294 293 293 292 292 291 290 289 288 288 287 286 285 284 283 283 282 282 281 281 280 280 279 278 278 277 276 275 275 274 274 273 273 272 272 272 271 271 270 269 269 268 267 266 265 264 263 263 262 262 261 260 259 259 258 257 256 255 254 253 252 251
297 298 298 298 299 299 299 300 300 300 299 299 299 299 298 298 298 297 297 296 295 295 294 294 293 293 292 291 290 289 289 288 288 287 286 285 285 284 284 283 283 282 282 281 280 280 279 278 277 276 275 274 274 273 273 273 273 273 273 272 271 270 270 269 268 267 266 265 265 264 263 263 262 261 260 259 259 258 257 256 255 254 253 252 251
298 298 298 299 299 299 300 300 300 300 300 299 299 299 298 298 298 297 297 296 295 295 294 293 293 292 291 291 290 289 289 289 288 287 287 286 286 285 285 284 284 283 283 282 281 280 280 279 278 277 276 275 274 274 274 274 274 274 274 273 272 271 270 269 269 268 267 266 265 265 264 263 262 262 261 260 259 258 257 256 255 254 254 253 252
298 298 299 299 299 300 300 300 300 300 300 299 299 299 299 298 298 297 296 296 295 294 294 293 292 292 291 290 290 290 289 289 288 288 287 287 287 286 286 286 285 284 284 283 282 281 280 279 278 277 276 276 276 276 276 275 275 275 274 274 273 272 271 271 270 269 268 267 266 265 265 264 263 262 261 260 259 259 258 257 257 255 254 253 253
298 299 299 300 300 301 301 300 300 300 300 300 299 299 299 299 298 297 296 295 295 294 293 293 292 292 291 291 290 290 290 289 289 288 288 288 287 287 287 286 286 285 285 284 283 282 280 279 278 278 277 277 277 278 278 278 277 276 275 274 274 274 273 273 272 271 269 268 267 266 265 265 264 263 262 261 260 259 259 258 257 256 255 254 253
299 300 301 301 301 301 301 301 301 300 300 300 300 300 299 298 297 296 296 295 295 294 293 293 292 292 291 291 290 290 290 290 289 289 289 289 288 288 288 287 287 286 286 285 283 282 280 280 279 279 279 280 280 280 280 279 278 277 277 276 276 276 275 274 272 271 270 269 268 267 266 265 264 263 262 261 261 260 259 258 257 257 256 255 253
301 302 302 302 302 301 301 301 301 301 301 301 300 300 299 298 297 296 296 295 294 294 293 293 292 292 292 291 291 291 291 291 290 290 290 289 289 289 289 289 288 288 286 285 283 282 281 281 281 281 282 282 282 281 281 280 279 279 279 278 278 277 275 274 272 271 270 269 268 267 266 265 264 264 263 262 261 260 259 258 257 256 255 255 254
302 302 302 302 302 302 302 302 302 302 301 301 300 299 298 298 297 296 296 295 294 294 293 293 293 293 292 293 293 292 292 291 291 290 290 290 290 289 289 290 289 289 287 285 284 283 283 282 283 283 283 283 283 283 282 282 281 281 280 279 278 276 274 273 272 271 270 269 268 267 266 265 265 264 263 262 261 260 259 258 257 256 256 255 254
303 303 303 302 302 302 302 302 302 302 302 301 300 299 298 298 297 296 296 295 295 294 294 294 294 294 294 294 293 293 292 292 291 291 291 291 290 290 290 290 289 288 287 287 286 285 285 285 284 284 284 284 284 283 283 283 282 282 281 279 277 275 274 273 272 271 270 269 268 267 266 265 264 264 263 262 261 260 259 258 257 256 256 255 254
303 303 303 302 302 302 303 303 303 302 301 300 300 299 299 298 297 297 296 296 295 295 295 295 295 295 294 294 293 293 293 292 292 292 291 291 292 292 292 291 289 288 288 287 287 287 287 287 287 286 285 285 284 284 283 283 282 282 280 278 276 275 274 273 272 271 270 270 269 267 266 266 265 264 263 262 261 260 258 258 257 256 256 255 254
304 303 303 303 303 303 303 303 303 302 301 301 300 300 299 298 298 297 297 297 297 297 296 296 295 295 294 294 294 294 293 293 292 292 292 293 293 293 293 292 291 290 289 288 288 288 288 288 288 287 287 286 285 284 284 283 282 281 279 278 276 275 275 273 272 271 271 270 270 269 268 266 265 264 263 262 261 260 259 258 257 256 256 255 255
304 303 303 303 304 304 303 303 303 302 302 301 301 300 299 299 299 298 298 298 298 298 297 296 296 295 295 295 295 295 294 293 293 293 294 294 294 294 294 293 292 291 290 289 289 289 288 288 288 288 288 287 286 285 284 283 282 281 280 278 277 276 275 273 272 272 272 271 270 269 268 267 265 264 263 262 261 261 260 259 258 257 256 256 256
304 304 304 304 304 304 304 303 303 302 302 301 301 300 300 300 300 300 300 299 299 298 297 297 296 296 296 296 296 296 295 294 295 295 296 295 295 295 295 294 293 291 291 291 290 289 289 288 288 287 287 286 286 285 284 283 282 281 279 279 278 278 276 275 274 274 273 271 269 268 267 266 265 264 263 263 262 262 261 261 260 258 257 256 256
304 304 304 304 304 304 304 304 303 303 302 302 301 301 301 301 301 301 300 300 299 298 298 298 298 298 298 297 297 296 296 296 296 296 296 296 296 296 295 294 293 292 292 292 291 290 289 288 288 287 286 286 285 285 284 283 282 281 279 279 278 278 277 277 277 276 273 270 268 266 265 265 265 265 265 265 264 263 262 261 261 260 258 257 256
304 304 304 304 304 304 304 304 303 303 302 302 302 302 302 302 302 301 300 300 299 299 299 299 299 299 299 298 297 297 297 297 297 297 297 296 296 296 295 294 293 293 293 292 291 289 289 288 288 287 286 286 286 285 284 283 282 281 280 280 278 277 276 277 277 275 273 271 269 267 266 265 265 265 266 266 265 264 263 262 261 261 260 258 257
305 304 304 304 305 305 304 304 303 303 303 303 303 303 303 303 302 301 301 300 300 300 300 300 300 300 299 298 298 298 297 297 297 297 297 297 296 296 295 294 293 293 293 292 290 290 289 289 288 287 287 286 285 285 284 284 282 281 281 281 280 279 278 278 276 274 272 270 269 268 268 268 267 266 266 265 265 264 263 262 261 261 260 259 258
305 304 305 305 305 305 304 304 304 304 304 304 304 304 304 303 302 301 301 300 301 301 301 301 301 300 299 299 298 298 297 297 297 297 297 297 296 296 295 294 294 294 293 291 290 290 290 289 288 288 287 286 285 284 284 284 283 283 282 281 281 281 281 279 277 275 273 271 269 268 268 267 267 267 266 266 265 264 263 262 261 261 260 260 259
304 304 305 305 305 304 304 304 304 305 305 305 305 304 304 303 302 302 301 302 302 302 302 302 301 300 299 299 299 298 297 297 297 297 297 297 297 296 295 295 294 293 292 291 291 290 290 289 289 288 287 286 285 285 284 284 284 283 282 281 281 281 280 280 279 277 276 274 272 270 267 265 265 265 266 266 266 265 265 263 262 261 260 259 259
304 305 305 305 305 305 305 305 305 306 306 305 305 304 303 303 302 302 302 303 303 303 302 302 301 300 300 299 299 298 297 297 297 297 297 298 297 296 296 295 294 293 292 291 291 290 290 289 288 288 287 287 286 286 285 284 283 282 281 281 281 280 280 280 279 278 277 276 274 272 270 267 265 263 263 263 264 265 265 264 262 261 260 259 259
305 305 305 305 305 305 306 306 306 306 306 306 305 304 303 303 303 303 303 303 303 303 302 302 301 301 300 299 299 298 298 298 298 298 298 298 297 297 296 295 294 293 292 291 290 290 290 289 288 288 287 287 287 287 286 285 283 282 281 281 280 280 280 279 279 278 277 276 275 274 272 270 268 265 264 262 262 262 262 262 262 261 260 259 258
306 305 305 306 306 306 307 307 307 307 306 305 305 304 303 303 303 304 304 304 304 303 303 302 302 301 301 300 299 298 298 298 298 298 299 298 298 297 297 295 294 293 292 291 290 290 289 289 288 288 288 289 288 288 286 285 284 284 283 281 280 280 280 279 279 279 278 277 276 275 274 272 270 268 266 264 262 261 261 261 261 260 259 259 258
306 306 306 306 307 307 307 307 307 307 306 306 305 304 304 304 305 305 304 304 304 304 303 302 302 302 301 300 299 299 299 299 299 299 299 299 299 298 297 295 294 294 292 291 290 290 289 288 288 288 289 289 288 288 287 286 285 284 283 282 281 280 280 279 279 279 278 277 276 276 275 274 273 271 269 267 264 262 261 260 260 259 259 258 258
306 306 307 308 308 308 308 308 308 307 307 306 305 305 305 305 305 305 305 305 305 304 303 303 302 302 301 300 300 300 299 299 299 300 300 300 299 298 297 295 295 294 293 292 291 290 289 288 288 288 289 289 288 288 288 287 286 285 284 283 281 280 280 280 279 279 278 277 276 275 275 274 274 273 272 270 268 265 262 260 260 260 259 259 258
307 308 308 308 309 309 309 309 308 308 307 306 306 306 306 306 306 305 305 305 305 304 304 303 303 303 302 301 300 300 300 300 300 300 300 300 300 299 297 296 295 294 293 293 292 291 289 288 288 288 288 288 288 288 288 288 288 288 287 285 284 283 281 280 279 278 277 276 276 276 275 274 273 272 271 271 270 269 267 264 262 261 260 259 258
308 309 309 309 309 309 309 309 309 308 307 307 307 307 307 306 306 305 305 305 305 305 304 304 304 304 303 302 301 301 301 301 301 301 301 301 300 299 297 296 296 294 293 293 292 291 290 289 289 289 289 289 288 288 288 288 288 287 287 287 287 286 285 284 282 280 278 277 276 275 274 273 272 271 270 269 269 269 269 268 266 264 262 261 259
309 309 309 310 310 310 310 309 309 308 308 308 308 308 307 306 306 305 306 306 306 306 305 305 305 304 303 303 302 302 302 301 301 301 301 301 300 299 298 297 296 295 295 294 293 292 291 291 291 291 291 291 291 290 289 289 288 287 287 287 287 286 286 285 284 282 281 279 277 276 275 274 272 270 269 268 268 268 268 268 267 266 265 264 262
309 310 310 311 311 311 310 310 309 309 309 308 308 308 307 306 306 306 306 307 306 306 306 306 305 305 304 303 303 303 302 302 301 301 301 301 300 299 298 297 296 296 296 295 294 292 291 291 290 290 290 290 289 289 289 288 288 288 287 287 287 286 286 285 284 283 281 280 278 276 275 274 272 271 270 269 268 268 267 267 267 266 266 265 264
310 310 311 311 311 311 311 310 310 310 309 309 308 307 307 306 307 307 307 307 307 307 307 307 306 305 305 304 304 303 303 302 302 302 302 301 300 299 298 296 295 294 294 294 293 292 291 291 291 290 290 290 289 288 287 286 286 285 285 285 285 285 285 285 284 283 281 280 278 277 274 272 271 271 270 269 268 268 267 267 266 266 266 265 265
311 311 312 312 312 312 312 311 311 310 309 308 308 307 307 307 307 308 308 308 308 308 307 307 307 306 306 305 305 304 303 303 303 303 302 303 302 301 300 298 297 296 295 294 293 292 291 291 291 291 291 292 291 291 290 289 289 288 287 286 284 284 283 283 282 282 281 280 278 277 275 273 271 270 269 268 267 266 267 266 266 265 265 265 265
312 312 312 313 313 313 312 312 311 310 309 308 307 308 308 308 308 309 309 309 309 308 308 308 307 306 306 305 305 304 303 303 302 302 302 303 303 302 302 300 299 299 298 297 295 294 294 293 293 292 292 292 292 292 292 292 292 292 291 290 289 287 286 284 282 281 280 279 278 276 274 273 272 271 269 268 267 266 265 265 265 265 265 265 265
313 313 313 313 313 313 312 311 310 309 308 308 308 308 309 309 309 309 309 309 309 309 309 308 308 307 306 305 304 303 302 302 302 302 302 302 302 301 301 300 300 300 299 299 298 297 295 295 294 294 293 293 292 292 291 291 291 291 291 291 291 290 289 287 285 283 281 280 278 275 273 271 271 270 270 269 269 267 266 266 265 265 264 264 264
313 314 314 314 313 313 312 311 310 309 308 309 309 309 309 309 309 309 309 309 309 309 309 309 308 308 307 306 305 304 303 302 302 301 301 301 301 300 299 299 299 298 298 298 297 297 295 295 294 294 293 293 293 292 292 291 290 289 289 288 288 288 288 288 287 285 284 282 280 278 275 272 270 269 269 269 269 268 267 267 266 265 264 264 264
314 314 314 313 313 312 311 310 309 309 309 309 309 309 310 310 310 310 310 310 310 309 309 309 309 309 308 307 306 305 304 303 303 302 302 301 301 300 299 298 298 298 297 297 297 297 296 296 295 295 294 294 294 293 292 291 290 289 289 288 287 286 286 286 286 286 285 284 282 280 278 275 272 270 269 268 268 268 268 267 266 265 264 264 264
314 314 314 313 313 312 311 310 310 310 310 310 310 310 310 310 310 310 310 310 310 310 310 310 309 309 308 307 307 306 305 305 304 304 303 302 301 301 300 299 298 298 297 297 297 297 297 297 297 297 297 296 296 295 294 293 291 290 289 289 288 287 286 286 285 285 285 284 283 281 280 278 275 273 271 269 268 267 267 267 266 266 265 264 263
314 314 314 313 312 312 311 311 311 310 310 310 310 310 310 310 310 310 311 311 311 311 310 310 309 309 308 307 307 307 306 306 305 305 304 303 303 302 301 300 300 299 298 297 297 296 296 297 297 297 297 296 296 295 294 293 292 291 291 290 290 289 288 287 286 285 285 284 283 282 281 279 277 275 273 271 269 267 266 265 265 265 265 264 262
314 314 314 313 312 312 312 312 311 311 311 311 311 311 311 311 311 311 311 312 311 311 310 310 309 309 308 308 307 307 306 306 306 305 305 305 304 304 303 302 301 301 300 299 299 298 298 298 298 298 297 296 295 294 293 293 292 292 292 292 291 291 290 289 288 287 286 285 284 283 281 280 278 276 274 272 270 268 266 265 264 264 264 263 262
314 314 313 313 313 313 313 312 312 311 311 311 311 312 312 312 312 312 312 312 312 311 311 310 309 309 308 308 308 307 307 306 306 306 306 306 305 305 304 304 303 303 302 302 301 301 301 301 301 300 299 298 298 297 296 296 295 295 294 293 292 291 291 290 289 288 287 285 284 283 281 280 278 276 274 272 270 268 266 265 263 263 263 261 260
314 314 314 314 314 314 313 312 312 312 312 312 312 312 312 312 313 313 313 313 312 311 311 310 310 310 309 309 309 308 307 307 307 307 307 306 306 306 306 305 305 305 304 304 304 304 304 304 303 302 301 300 300 299 299 299 298 297 296 295 293 292 291 291 290 289 288 286 284 283 281 280 278 276 274 272 270 268 266 265 263 262 261 260 258
314 314 315 315 315 314 313 313 312 312 313 313 313 313 313 313 313 313 313 313 312 312 311 311 310 310 310 310 309 309 308 308 308 307 307 307 307 307 307 306 306 306 306 306 306 306 305 305 304 303 302 301 301 301 300 300 299 299 297 296 295 294 293 292 290 288 287 286 285 283 281 279 277 275 274 272 269 268 266 264 262 261 259 258 257
315 315 315 315 315 314 314 314 313 313 313 314 313 313 313 313 314 314 313 313 312 312 312 311 311 311 311 311 310 310 309 309 309 308 308 308 308 307 307 307 307 307 307 307 307 307 306 306 305 304 304 303 302 302 302 301 300 299 298 296 296 295 294 293 291 289 288 286 285 283 281 279 277 275 273 271 269 267 265 264 262 260 259 258 258
316 316 316 316 315 315 315 314 314 314 314 314 314 314 314 314 314 314 313 313 313 313 312 312 312 312 312 312 311 311 311 310 310 310 310 309 309 309 308 308 308 308 308 308 308 308 307 307 306 305 305 304 304 304 303 302 300 299 298 297 296 296 295 294 292 290 289 287 285 283 281 279 277 275 272 270 269 267 265 264 262 260 260 259 259
317 317 316 316 315 315 315 315 315 315 315 314 315 315 315 315 314 314 313 314 314 314 313 313 313 313 313 313 312 312 312 312 311 311 311 310 310 310 309 309 310 310 310 310 310 309 309 308 308 307 306 306 306 305 304 303 301 300 299 298 298 297 297 295 294 292 290 288 285 283 281 279 278 275 273 271 269 267 265 264 262 261 260 260 260
317 316 316 316 316 316 316 316 315 315 315 315 315 315 315 315 314 314 314 315 315 315 315 314 314 314 314 313 313 313 313 313 313 312 312 312 311 311 311 312 312 312 312 312 312 311 311 310 309 309 308 308 307 306 305 304 302 301 300 299 299 298 298 296 295 293 291 288 285 283 281 280 278 276 274 272 270 267 265 263 262 261 260 259 258
317 316 316 317 317 317 317 316 316 316 316 316 315 315 315 315 315 315 316 316 316 316 316 315 315 315 315 314 314 314 314 314 314 314 313 313 313 313 313 314 314 314 314 314 313 313 312 311 311 311 310 309 309 308 307 306 304 303 302 301 300 300 299 297 296 294 291 288 285 283 281 280 278 276 274 271 268 266 264 262 260 259 258 256 254
317 317 317 318 318 317 317 317 317 317 317 316 316 316 316 316 316 317 317 317 317 317 317 316 316 316 316 316 316 316 316 315 315 315 314 314 314 315 315 316 316 316 316 315 314 314 313 313 313 312 311 311 310 309 309 307 306 305 304 303 303 301 299 298 296 294 292 288 285 283 281 279 277 275 273 270 267 265 262 260 259 258 256 255 254
318 318 318 318 318 318 318 318 318 318 317 317 317 317 317 317 317 317 318 318 318 317 317 317 317 317 317 317 317 317 317 316 316 316 315 316 316 317 317 318 318 317 317 316 315 315 315 315 314 313 313 312 312 311 310 309 308 307 306 305 304 302 300 298 297 294 292 289 285 283 280 279 277 274 272 269 266 263 261 259 258 256 255 254 253
319 319 319 319 319 319 319 319 319 319 319 319 318 318 318 318 318 318 318 318 318 318 318 318 318 318 319 319 318 318 318 317 317 317 317 318 318 319 320 319 319 318 317 317 317 317 317 317 316 315 314 314 314 313 312 311 310 309 308 307 305 303 301 299 297 295 292 289 286 283 281 279 276 274 271 268 265 263 260 258 256 255 253 252 250